GW3504 Weather Reports


time (UTC)temp
C
wind
direction
speed
KPH
gust
KPH
rain 1hr
cm
rain 24hr
cm
rain mn
cm
humidity
%
barometer
mb
20260831151549 30 0 1.6 12.9 0.00 0.00 0.00 56 1015.7
20260831151028 29 0 1.6 12.9 0.00 0.00 0.00 56 1015.8
20260831150530 30 163 1.6 12.9 0.00 0.00 0.00 55 1015.8
20260831150048 30 345 3.2 14.5 0.00 0.00 0.00 56 1015.8
20260831145528 29 180 1.6 14.5 0.00 0.00 0.00 58 1015.8
20260831145029 28 225 3.2 16.1 0.00 0.00 0.00 57 1015.7
20260831144552 28 218 4.8 16.1 0.00 0.00 0.00 59 1015.7
20260831144024 28 348 3.2 16.1 0.00 0.00 0.00 59 1015.7
20260831143526 28 0 3.2 16.1 0.00 0.00 0.00 60 1015.7
20260831143054 28 170 0.0 9.7 0.00 0.00 0.00 61 1015.8
20260831142526 27 269 3.2 14.5 0.00 0.00 0.00 61 1015.8
20260831142028 27 306 0.0 14.5 0.00 0.00 0.00 62 1015.9
20260831141549 27 42 3.2 20.9 0.00 0.00 0.00 63 1015.9
20260831141025 26 190 1.6 20.9 0.00 0.00 0.00 64 1015.9
20260831140527 26 178 4.8 19.3 0.00 0.00 0.00 65 1015.9
20260831140048 26 159 6.4 14.5 0.00 0.00 0.00 66 1015.9
20260831135525 25 159 4.8 14.5 0.00 0.00 0.00 67 1015.8
20260831135024 25 184 3.2 12.9 0.00 0.00 0.00 67 1016.0
20260831134546 25 131 4.8 12.9 0.00 0.00 0.00 66 1015.9
20260831134031 25 217 1.6 14.5 0.00 0.00 0.00 66 1015.8
20260831133528 25 298 4.8 14.5 0.00 0.00 0.00 66 1015.7
20260831133055 25 0 3.2 14.5 0.00 0.00 0.00 67 1015.7
20260831132525 25 161 1.6 12.9 0.00 0.00 0.00 68 1015.7
20260831132030 25 170 4.8 12.9 0.00 0.00 0.00 67 1015.8
20260831131553 25 171 3.2 14.5 0.00 0.00 0.00 67 1015.9
20260831131027 25 0 3.2 14.5 0.00 0.00 0.00 67 1015.9
20260831130524 25 0 1.6 11.3 0.00 0.00 0.00 67 1015.8
20260831130052 25 129 3.2 11.3 0.00 0.00 0.00 67 1015.8
20260831125523 25 0 1.6 11.3 0.00 0.00 0.00 67 1015.7
20260831125028 25 138 1.6 17.7 0.00 0.00 0.00 67 1015.7
20260831124549 25 161 3.2 17.7 0.00 0.00 0.00 67 1015.5
20260831124024 24 188 4.8 16.1 0.00 0.00 0.00 67 1015.4
20260831123525 24 182 3.2 9.7 0.00 0.00 0.00 68 1015.4
20260831123050 24 0 3.2 9.7 0.00 0.00 0.00 68 1015.5
20260831122527 24 192 0.0 8.0 0.00 0.00 0.00 68 1015.4
20260831122025 24 0 1.6 11.3 0.00 0.00 0.00 68 1015.3
20260831121545 23 0 1.6 11.3 0.00 0.00 0.00 68 1015.2
20260831121024 23 0 1.6 11.3 0.00 0.00 0.00 68 1015.2
20260831120525 23 0 1.6 11.3 0.00 0.00 0.00 68 1015.1
20260831120053 23 157 0.0 9.7 0.00 0.00 0.00 68 1014.9
20260831115531 23 0 1.6 9.7 0.00 0.00 0.00 68 1014.9
20260831115027 23 0 0.0 11.3 0.00 0.00 0.00 67 1014.7
20260831114544 23 196 4.8 11.3 0.00 0.00 0.00 67 1014.5
20260831114025 24 167 4.8 11.3 0.00 0.00 0.00 67 1014.5
20260831113525 24 143 4.8 12.9 0.00 0.00 0.00 66 1014.4
20260831113050 24 182 3.2 14.5 0.00 0.00 0.00 65 1014.4
20260831112524 24 187 6.4 14.5 0.00 0.00 0.00 65 1014.4
20260831112024 24 0 3.2 11.3 0.00 0.00 0.00 65 1014.4
20260831111554 25 196 3.2 14.5 0.00 0.00 0.00 65 1014.5
20260831111023 24 209 3.2 14.5 0.00 0.00 0.00 65 1014.5
20260831110524 24 178 4.8 14.5 0.00 0.00 0.00 65 1014.5
20260831110049 24 169 4.8 14.5 0.00 0.00 0.00 65 1014.5
20260831105526 24 169 3.2 14.5 0.00 0.00 0.00 65 1014.4
20260831105026 24 0 1.6 8.0 0.00 0.00 0.00 65 1014.4
20260831104544 24 0 0.0 4.8 0.00 0.00 0.00 65 1014.3
20260831104026 25 174 0.0 4.8 0.00 0.00 0.00 64 1014.2
20260831103525 25 177 0.0 3.2 0.00 0.00 0.00 64 1014.2
20260831103041 25 0 0.0 9.7 0.00 0.00 0.00 63 1014.2
20260831102526 25 0 0.0 9.7 0.00 0.00 0.00 63 1014.1
20260831102028 25 183 3.2 11.3 0.00 0.00 0.00 62 1013.9
20260831101556 25 156 3.2 14.5 0.00 0.00 0.00 62 1013.8
20260831101022 25 0 4.8 16.1 0.00 0.00 0.00 62 1013.7
20260831100524 25 148 4.8 16.1 0.00 0.00 0.00 61 1013.6
20260831100047 25 151 4.8 14.5 0.00 0.00 0.00 61 1013.6
20260831095526 25 179 3.2 14.5 0.00 0.00 0.00 61 1013.6
20260831095023 26 186 4.8 22.5 0.00 0.00 0.00 60 1013.5
20260831094544 26 176 4.8 22.5 0.00 0.00 0.00 60 1013.5
20260831094025 26 169 6.4 17.7 0.00 0.00 0.00 59 1013.4
20260831093523 26 163 3.2 19.3 0.00 0.00 0.00 59 1013.3
20260831093050 26 178 9.7 19.3 0.00 0.00 0.00 58 1013.2
20260831092525 26 0 6.4 17.7 0.00 0.00 0.00 58 1013.2
20260831092025 26 180 6.4 16.1 0.00 0.00 0.00 58 1013.3
20260831091559 26 188 4.8 16.1 0.00 0.00 0.00 58 1013.4
20260831091028 26 173 4.8 12.9 0.00 0.00 0.00 57 1013.3
20260831090524 26 154 4.8 22.5 0.00 0.00 0.00 57 1013.3
20260831090051 26 190 6.4 22.5 0.00 0.00 0.00 57 1013.3
20260831085523 26 181 4.8 16.1 0.00 0.00 0.00 56 1013.1
20260831085024 26 196 1.6 14.5 0.00 0.00 0.00 56 1013.2
20260831084547 27 154 3.2 14.5 0.00 0.00 0.00 56 1013.1
20260831084026 27 0 3.2 17.7 0.00 0.00 0.00 55 1013.1
20260831083523 27 167 4.8 17.7 0.00 0.00 0.00 55 1013.1
20260831083057 27 192 6.4 17.7 0.00 0.00 0.00 55 1013.1
20260831082524 27 191 8.0 17.7 0.00 0.00 0.00 55 1013.1
20260831082024 27 190 4.8 19.3 0.00 0.00 0.00 55 1013.2
20260831081558 27 173 4.8 19.3 0.00 0.00 0.00 54 1013.1
20260831081023 27 180 4.8 14.5 0.00 0.00 0.00 54 1013.1
20260831080525 27 164 4.8 14.5 0.00 0.00 0.00 54 1013.1
20260831080112 27 156 3.2 11.3 0.00 0.00 0.00 54 1013.0
20260831075526 27 0 3.2 9.7 0.00 0.00 0.00 53 1013.0
20260831075023 28 170 1.6 11.3 0.00 0.00 0.00 52 1013.1
20260831074545 28 153 1.6 11.3 0.00 0.00 0.00 52 1013.2
20260831074027 28 220 1.6 11.3 0.00 0.00 0.00 51 1013.0
20260831073527 28 0 1.6 11.3 0.00 0.00 0.00 51 1012.9
20260831073111 28 167 3.2 12.9 0.00 0.00 0.00 51 1012.8
20260831072526 28 183 1.6 14.5 0.00 0.00 0.00 51 1012.9
20260831072029 28 0 3.2 14.5 0.00 0.00 0.00 51 1012.8
20260831071553 28 186 0.0 9.7 0.00 0.00 0.00 51 1012.9
20260831071027 28 244 0.0 6.4 0.00 0.00 0.00 51 1013.0
20260831070529 28 0 0.0 9.7 0.00 0.00 0.00 50 1013.0
20260831070048 28 0 3.2 12.9 0.00 0.00 0.00 50 1013.1
20260831065524 28 205 3.2 12.9 0.00 0.00 0.00 50 1013.0
20260831065029 28 0 0.0 9.7 0.00 0.00 0.00 50 1013.0
20260831064547 28 173 0.0 12.9 0.00 0.00 0.00 51 1013.1
20260831064028 28 0 3.2 12.9 0.00 0.00 0.00 51 1013.0
20260831063524 28 0 1.6 9.7 0.00 0.00 0.00 51 1012.9
20260831063050 28 175 3.2 12.9 0.00 0.00 0.00 51 1012.8
20260831062523 28 175 3.2 16.1 0.00 0.00 0.00 51 1012.7
20260831062030 28 207 4.8 16.1 0.00 0.00 0.00 50 1012.7
20260831061549 28 180 6.4 14.5 0.00 0.00 0.00 51 1012.7
20260831061029 28 0 3.2 14.5 0.00 0.00 0.00 51 1012.7
20260831060525 28 165 3.2 16.1 0.00 0.00 0.00 51 1012.7
20260831060055 28 164 4.8 16.1 0.00 0.00 0.00 51 1012.5
20260831055523 28 174 4.8 16.1 0.00 0.00 0.00 51 1012.6
20260831055023 28 171 3.2 17.7 0.00 0.00 0.00 51 1012.5
20260831054552 28 169 6.4 20.9 0.00 0.00 0.00 51 1012.5
20260831054032 28 207 6.4 20.9 0.00 0.00 0.00 51 1012.4
20260831053523 29 169 8.0 20.9 0.00 0.00 0.00 51 1012.4
20260831053047 29 177 8.0 19.3 0.00 0.00 0.00 51 1012.4
20260831052522 29 192 4.8 20.9 0.00 0.00 0.00 51 1012.3
20260831052025 29 144 4.8 24.1 0.00 0.00 0.00 51 1012.2
20260831051551 29 162 9.7 24.1 0.00 0.00 0.00 50 1012.2
20260831051027 29 132 4.8 24.1 0.00 0.00 0.00 51 1012.1
20260831050527 29 165 6.4 22.5 0.00 0.00 0.00 50 1012.2
20260831050055 29 147 6.4 30.6 0.00 0.00 0.00 50 1012.2
20260831045524 29 198 9.7 30.6 0.00 0.00 0.00 50 1012.2
20260831045025 29 206 8.0 22.5 0.00 0.00 0.00 50 1012.2
20260831044556 29 155 4.8 22.5 0.00 0.00 0.00 50 1012.1
20260831044025 29 179 4.8 16.1 0.00 0.00 0.00 50 1012.2
20260831043523 30 171 6.4 16.1 0.00 0.00 0.00 50 1012.1
20260831043043 30 152 4.8 22.5 0.00 0.00 0.00 50 1012.2
20260831042524 30 119 6.4 22.5 0.00 0.00 0.00 50 1012.2
20260831042025 30 160 3.2 17.7 0.00 0.00 0.00 50 1012.1
20260831041559 30 209 4.8 22.5 0.00 0.00 0.00 50 1012.0
20260831041029 30 174 4.8 22.5 0.00 0.00 0.00 49 1012.0
20260831040527 30 227 4.8 22.5 0.00 0.00 0.00 49 1012.0
20260831040043 30 169 6.4 20.9 0.00 0.00 0.00 49 1012.1
20260831035522 30 207 3.2 20.9 0.00 0.00 0.00 49 1012.0
20260831035023 30 162 4.8 20.9 0.00 0.00 0.00 48 1012.0
20260831034553 30 161 4.8 22.5 0.00 0.00 0.00 48 1011.9
20260831034026 30 157 6.4 22.5 0.00 0.00 0.00 48 1011.9
20260831033523 30 149 4.8 16.1 0.00 0.00 0.00 48 1011.9
20260831033048 30 180 4.8 16.1 0.00 0.00 0.00 47 1011.9
20260831032525 30 206 4.8 16.1 0.00 0.00 0.00 47 1011.9
20260831032024 30 94 6.4 16.1 0.00 0.00 0.00 47 1011.8
20260831031551 31 155 6.4 22.5 0.00 0.00 0.00 46 1011.8
20260831031026 31 168 8.0 22.5 0.00 0.00 0.00 46 1011.8
20260831030522 31 144 9.7 22.5 0.00 0.00 0.00 46 1011.7
20260831030053 31 171 6.4 20.9 0.00 0.00 0.00 45 1011.8
20260831025525 31 164 8.0 20.9 0.00 0.00 0.00 45 1011.8
20260831025031 31 175 6.4 20.9 0.00 0.00 0.00 45 1011.8
20260831024547 31 167 4.8 25.7 0.00 0.00 0.00 45 1011.8
20260831024024 31 163 3.2 25.7 0.00 0.00 0.00 44 1011.8
20260831023525 31 217 4.8 17.7 0.00 0.00 0.00 44 1011.8
20260831023044 31 155 4.8 20.9 0.00 0.00 0.00 44 1011.7
20260831022528 31 196 6.4 20.9 0.00 0.00 0.00 44 1011.7
20260831022025 32 154 8.0 25.7 0.00 0.00 0.00 43 1011.7
20260831021552 32 190 8.0 25.7 0.00 0.00 0.00 44 1011.6
20260831021024 32 191 6.4 19.3 0.00 0.00 0.00 44 1011.4
20260831020525 32 166 6.4 22.5 0.00 0.00 0.00 44 1011.5
20260831020051 32 169 6.4 22.5 0.00 0.00 0.00 44 1011.4
20260831015523 32 175 8.0 22.5 0.00 0.00 0.00 43 1011.4
20260831015027 32 187 4.8 22.5 0.00 0.00 0.00 44 1011.4
20260831014549 32 167 6.4 22.5 0.00 0.00 0.00 44 1011.2
20260831014024 32 141 11.3 22.5 0.00 0.00 0.00 44 1011.2
20260831013525 32 149 6.4 22.5 0.00 0.00 0.00 44 1011.2
20260831013054 32 157 8.0 22.5 0.00 0.00 0.00 44 1011.1
20260831012525 32 182 3.2 17.7 0.00 0.00 0.00 44 1011.1
20260831012024 32 164 4.8 17.7 0.00 0.00 0.00 43 1011.0
20260831011548 33 180 3.2 14.5 0.00 0.00 0.00 43 1011.0
20260831011026 33 149 6.4 16.1 0.00 0.00 0.00 42 1011.0
20260831010526 33 158 4.8 16.1 0.00 0.00 0.00 42 1011.0
20260831010107 33 165 4.8 16.1 0.00 0.00 0.00 42 1010.9
20260831005523 33 181 6.4 16.1 0.00 0.00 0.00 42 1010.8
20260831005027 33 158 6.4 16.1 0.00 0.00 0.00 41 1010.8
20260831004552 33 179 4.8 16.1 0.00 0.00 0.00 41 1010.9
20260831004024 34 201 3.2 17.7 0.00 0.00 0.00 41 1010.9
20260831003524 34 0 6.4 17.7 0.00 0.00 0.00 40 1010.9
20260831003103 34 186 4.8 19.3 0.00 0.00 0.00 40 1010.9
20260831002524 35 0 3.2 22.5 0.00 0.00 0.00 40 1010.9
20260831002025 35 175 6.4 22.5 0.00 0.00 0.00 40 1010.8
20260831001547 35 175 4.8 17.7 0.00 0.00 0.00 40 1010.8
20260831001024 35 169 4.8 19.3 0.00 0.00 0.00 39 1010.7
20260831000523 35 175 4.8 19.3 0.00 0.00 0.00 40 1010.9
20260831000049 35 170 4.8 17.7 0.00 0.00 0.00 39 1010.8
20260830235528 35 171 3.2 19.3 0.00 0.00 0.00 39 1010.8
20260830235027 36 178 1.6 20.9 0.00 0.00 0.00 39 1010.6
20260830234546 36 138 9.7 20.9 0.00 0.00 0.00 38 1010.6
20260830234025 36 209 4.8 17.7 0.00 0.00 0.00 38 1010.6
20260830233529 36 173 6.4 17.7 0.00 0.00 0.00 38 1010.6
20260830233050 36 186 3.2 14.5 0.00 0.00 0.00 38 1010.5
20260830232525 36 160 4.8 24.1 0.00 0.00 0.00 37 1010.5
20260830232025 36 0 6.4 30.6 0.00 0.00 0.00 36 1010.5
20260830231549 36 171 9.7 32.2 0.00 0.00 0.00 35 1010.4
20260830231023 36 160 8.0 32.2 0.00 0.00 0.00 35 1010.6
20260830230527 37 143 9.7 24.1 0.00 0.00 0.00 34 1010.4
20260830230045 37 182 4.8 29.0 0.00 0.00 0.00 35 1010.3
20260830225524 37 333 8.0 32.2 0.00 0.00 0.00 35 1010.3
20260830225022 37 184 11.3 32.2 0.00 0.00 0.00 35 1010.3
20260830224548 37 161 11.3 25.7 0.00 0.00 0.00 34 1010.3
20260830224025 37 128 9.7 30.6 0.00 0.00 0.00 35 1010.2
20260830223523 37 227 11.3 35.4 0.00 0.00 0.00 35 1010.3
20260830223045 37 173 11.3 35.4 0.00 0.00 0.00 35 1010.3
20260830222524 37 126 4.8 27.4 0.00 0.00 0.00 36 1010.4
20260830222024 37 198 9.7 27.4 0.00 0.00 0.00 35 1010.3
20260830221545 37 130 6.4 30.6 0.00 0.00 0.00 36 1010.3
20260830221024 37 155 6.4 30.6 0.00 0.00 0.00 36 1010.3
20260830220526 37 152 9.7 30.6 0.00 0.00 0.00 36 1010.4
20260830220051 37 183 9.7 22.5 0.00 0.00 0.00 36 1010.4
20260830215527 37 236 6.4 27.4 0.00 0.00 0.00 36 1010.4
20260830215027 37 125 6.4 29.0 0.00 0.00 0.00 36 1010.4
20260830214544 37 169 12.9 29.0 0.00 0.00 0.00 36 1010.4
20260830214026 37 181 9.7 27.4 0.00 0.00 0.00 35 1010.4
20260830213530 37 148 12.9 24.1 0.00 0.00 0.00 35 1010.6
20260830213049 37 158 8.0 22.5 0.00 0.00 0.00 37 1010.6
20260830212524 37 174 4.8 30.6 0.00 0.00 0.00 37 1010.6
20260830212027 37 202 6.4 32.2 0.00 0.00 0.00 38 1010.6
20260830211548 37 126 14.5 32.2 0.00 0.00 0.00 38 1010.8
20260830211026 37 213 8.0 30.6 0.00 0.00 0.00 37 1010.8
20260830210524 37 149 6.4 30.6 0.00 0.00 0.00 36 1010.8
20260830210046 37 128 9.7 25.7 0.00 0.00 0.00 37 1010.8
20260830205527 37 185 8.0 25.7 0.00 0.00 0.00 38 1011.0
20260830205023 37 161 6.4 30.6 0.00 0.00 0.00 38 1011.0
20260830204544 37 209 6.4 30.6 0.00 0.00 0.00 38 1011.0
20260830204025 37 201 9.7 25.7 0.00 0.00 0.00 38 1011.0
20260830203524 37 162 4.8 25.7 0.00 0.00 0.00 38 1011.1
20260830203051 37 222 8.0 25.7 0.00 0.00 0.00 38 1011.3
20260830202526 37 325 8.0 25.7 0.00 0.00 0.00 38 1011.4
20260830202024 37 169 6.4 25.7 0.00 0.00 0.00 37 1011.6
20260830201549 37 136 3.2 20.9 0.00 0.00 0.00 39 1011.5
20260830201027 37 115 6.4 29.0 0.00 0.00 0.00 39 1011.5
20260830200528 37 0 6.4 29.0 0.00 0.00 0.00 39 1011.7
20260830200047 37 254 4.8 33.8 0.00 0.00 0.00 39 1011.8
20260830195523 36 171 12.9 33.8 0.00 0.00 0.00 39 1011.8
20260830195025 37 177 6.4 25.7 0.00 0.00 0.00 40 1012.0
20260830194559 37 95 6.4 24.1 0.00 0.00 0.00 40 1012.0
20260830194028 37 180 8.0 24.1 0.00 0.00 0.00 41 1012.0
20260830193523 37 150 4.8 16.1 0.00 0.00 0.00 39 1012.1
20260830193049 37 325 4.8 20.9 0.00 0.00 0.00 39 1012.2
20260830192525 37 0 4.8 27.4 0.00 0.00 0.00 41 1012.2
20260830192025 36 174 9.7 27.4 0.00 0.00 0.00 41 1012.2
20260830191547 36 114 8.0 27.4 0.00 0.00 0.00 41 1012.2
20260830191026 36 165 8.0 27.4 0.00 0.00 0.00 42 1012.2
20260830190524 36 166 8.0 29.0 0.00 0.00 0.00 43 1012.3
20260830190041 36 141 11.3 29.0 0.00 0.00 0.00 41 1012.3
20260830185523 36 217 4.8 30.6 0.00 0.00 0.00 43 1012.3
20260830185025 36 205 8.0 30.6 0.00 0.00 0.00 42 1012.4
20260830184549 36 184 4.8 27.4 0.00 0.00 0.00 43 1012.5
20260830184024 35 261 8.0 27.4 0.00 0.00 0.00 43 1012.5
20260830183523 35 180 8.0 27.4 0.00 0.00 0.00 44 1012.5
20260830183044 35 216 6.4 27.4 0.00 0.00 0.00 43 1012.6
20260830182524 35 340 4.8 29.0 0.00 0.00 0.00 44 1012.7
20260830182026 35 148 9.7 29.0 0.00 0.00 0.00 45 1012.7
20260830181549 35 175 11.3 24.1 0.00 0.00 0.00 45 1012.8
20260830181024 35 137 4.8 30.6 0.00 0.00 0.00 46 1012.8
20260830180523 35 217 8.0 30.6 0.00 0.00 0.00 45 1012.7
20260830180049 35 269 6.4 22.5 0.00 0.00 0.00 44 1012.9
20260830175523 34 214 4.8 33.8 0.00 0.00 0.00 46 1012.9
20260830175023 33 192 9.7 33.8 0.00 0.00 0.00 45 1013.1
20260830174603 34 176 6.4 22.5 0.00 0.00 0.00 45 1013.0
20260830174023 34 154 8.0 24.1 0.00 0.00 0.00 46 1013.0
20260830173524 33 352 8.0 24.1 0.00 0.00 0.00 47 1013.1
20260830173049 33 173 8.0 24.1 0.00 0.00 0.00 46 1013.0
20260830172523 33 279 6.4 24.1 0.00 0.00 0.00 47 1013.1
20260830172026 33 97 8.0 29.0 0.00 0.00 0.00 48 1013.1
20260830171600 33 117 8.0 32.2 0.00 0.00 0.00 49 1013.2
20260830171026 32 0 9.7 32.2 0.00 0.00 0.00 49 1013.3
20260830170531 33 205 9.7 22.5 0.00 0.00 0.00 48 1013.4
20260830170048 32 199 6.4 32.2 0.00 0.00 0.00 50 1013.4
20260830165529 32 130 8.0 32.2 0.00 0.00 0.00 50 1013.4
20260830165023 32 153 9.7 32.2 0.00 0.00 0.00 51 1013.4
20260830164542 32 165 9.7 25.7 0.00 0.00 0.00 49 1013.4
20260830164028 32 163 3.2 22.5 0.00 0.00 0.00 51 1013.6
20260830163524 32 191 8.0 27.4 0.00 0.00 0.00 51 1013.5
20260830163055 31 167 9.7 27.4 0.00 0.00 0.00 51 1013.5
20260830162526 31 0 8.0 27.4 0.00 0.00 0.00 53 1013.5
20260830162026 31 161 9.7 27.4 0.00 0.00 0.00 52 1013.7
20260830161604 31 231 6.4 22.5 0.00 0.00 0.00 53 1013.7
20260830161024 31 132 8.0 22.5 0.00 0.00 0.00 52 1013.7
20260830160527 31 243 4.8 24.1 0.00 0.00 0.00 53 1013.6
20260830160044 31 161 6.4 24.1 0.00 0.00 0.00 53 1013.6
20260830155531 30 178 6.4 25.7 0.00 0.00 0.00 53 1013.5
20260830155029 30 182 6.4 25.7 0.00 0.00 0.00 54 1013.5
20260830154551 30 170 8.0 22.5 0.00 0.00 0.00 54 1013.5
20260830154026 30 157 6.4 22.5 0.00 0.00 0.00 54 1013.5
20260830153525 30 159 4.8 25.7 0.00 0.00 0.00 55 1013.5
20260830153048 29 166 8.0 25.7 0.00 0.00 0.00 55 1013.4
20260830152526 29 275 8.0 25.7 0.00 0.00 0.00 55 1013.4
20260830152024 29 174 3.2 24.1 0.00 0.00 0.00 57 1013.4